Wind_Speed
79 80 81 82 81 81 82 81 81 83 84 84 85 88 91 94 96 97 99 101 105 106 102 107 108 107 110 112 109 106 114 112 112 111 111 106 102 97 97 92 91 90 87 79 76 72 50 59 57 56 52 59 58 61
73 75 75 75 74 74 75 77 79 81 82 83 85 86 88 92 95 95 93 97 98 94 80 91 90 90 94 100 97 98 95 96 95 98 100 94 90 87 84 79 76 79 64 63 58 46 35 43 47 44 43 38 45 53
69 69 68 69 68 67 67 68 72 76 78 80 82 86 88 90 92 90 91 93 92 84 76 75 77 89 84 85 87 77 79 83 87 82 83 81 78 75 70 62 67 61 53 46 43 33 44 49 42 33 37 42 50 54
66 62 64 62 63 64 63 66 70 74 75 80 84 84 85 86 86 85 83 85 79 75 67 69 78 78 80 72 74 73 77 78 72 73 72 74 68 63 54 49 47 48 45 36 32 48 56 52 45 38 50 53 54 50
57 57 56 57 58 60 62 65 68 71 74 77 79 81 82 82 81 78 75 78 76 70 65 66 71 74 67 71 71 66 67 64 64 68 63 59 56 52 49 47 34 36 34 27 39 55 58 48 46 50 45 51 50 56
49 52 54 53 56 60 61 65 65 65 67 69 71 72 74 73 70 66 65 71 70 65 59 61 66 63 66 61 59 60 60 58 58 54 47 47 45 47 42 28 39 44 47 42 41 53 46 50 57 55 53 48 60 57
50 52 52 53 55 57 57 56 60 61 62 63 64 64 64 61 58 59 63 67 64 59 56 60 59 61 57 54 52 52 51 50 49 49 44 43 39 41 39 45 56 61 53 47 37 38 53 57 54 59 58 56 54 60
51 52 53 54 53 53 54 54 54 54 55 55 55 54 52 50 52 56 61 60 56 52 54 56 58 54 50 50 50 52 51 48 46 43 42 40 45 43 44 63 69 59 59 50 48 50 59 62 63 59 60 59 52 53
49 50 50 50 50 50 49 49 49 50 48 47 47 46 46 49 54 56 54 52 51 51 52 52 51 49 52 51 53 51 50 48 45 45 45 52 49 46 65 68 69 67 62 60 53 57 59 61 62 59 61 57 56 50
44 45 45 45 45 45 46 46 46 45 43 44 43 43 46 48 47 45 47 45 47 46 46 49 48 51 55 60 63 67 69 70 64 57 55 55 54 62 65 69 75 73 69 58 52 54 57 60 55 55 56 59 56 58
42 41 42 42 42 43 43 43 43 41 40 39 38 41 42 41 42 43 41 44 46 48 51 54 58 61 64 68 78 80 79 73 71 67 67 69 68 75 68 65 69 68 62 54 48 43 45 49 51 56 53 57 48 52
39 39 38 38 38 38 38 37 36 36 34 33 34 35 36 37 39 40 42 45 50 55 60 66 70 72 73 88 84 78 78 78 75 72 72 69 68 68 74 66 63 63 61 57 50 44 51 47 50 56 54 60 57 59
38 37 36 35 34 33 32 33 32 30 29 30 32 35 36 34 36 40 46 51 55 61 68 75 75 79 87 88 81 78 77 79 80 80 77 74 71 61 68 67 68 65 58 57 52 50 50 49 42 44 50 56 54 58
35 33 33 32 31 29 28 26 24 23 24 28 30 31 29 34 41 49 55 60 66 76 79 80 77 78 90 91 88 85 80 76 78 72 70 77 77 68 67 70 71 68 61 61 60 55 56 52 53 56 46 52 66 67
31 30 29 28 26 25 23 20 20 21 23 25 29 33 38 42 45 50 56 63 71 80 87 85 85 93 95 92 88 81 86 80 75 78 71 68 78 76 67 75 72 76 67 74 67 61 57 59 62 61 62 63 69 73
30 29 27 24 23 21 20 20 20 20 23 28 33 37 41 47 52 58 65 71 77 80 90 92 96 97 95 87 86 86 83 71 68 71 73 71 73 69 69 72 67 61 64 64 66 68 66 65 69 65 63 67 75 74
27 25 24 22 21 21 20 20 20 21 27 32 37 40 46 54 61 68 75 80 86 91 92 101 100 98 92 89 82 84 75 68 67 69 72 72 75 69 71 66 69 71 66 70 70 71 72 69 69 70 76 73 76 81
21 22 22 21 21 20 19 19 22 24 31 34 38 41 46 54 63 73 80 83 86 89 95 105 103 96 97 88 81 82 74 71 67 62 66 68 73 74 73 71 69 72 71 70 71 74 79 78 78 81 77 78 80 84
21 21 21 21 19 18 22 25 26 30 33 34 36 41 47 53 61 66 70 78 75 90 98 97 99 97 93 85 86 89 82 75 68 63 64 61 60 62 74 72 73 74 78 76 73 73 72 71 73 76 81 81 80 83
19 19 19 20 23 27 29 28 26 31 32 33 35 39 44 52 55 62 70 75 76 86 93 93 99 96 92 93 92 91 83 76 73 71 66 62 61 60 61 71 75 77 77 80 80 81 81 81 78 79 83 86 87 91
18 16 19 23 26 25 23 23 25 27 29 31 35 39 44 49 53 59 64 69 77 84 90 92 93 101 98 99 96 94 90 81 82 79 70 67 66 67 62 62 66 75 84 84 75 69 71 82 87 92 90 94 96 97
17 18 20 20 19 19 19 19 20 22 25 28 32 37 43 48 54 58 60 66 82 85 93 92 91 101 101 102 93 88 88 81 75 75 74 72 70 72 72 75 73 70 73 75 73 74 78 81 85 88 92 95 98 98
18 17 16 16 17 17 17 18 20 22 26 28 29 33 40 48 54 56 57 62 75 85 94 98 97 101 107 99 104 99 89 83 81 80 79 76 75 75 78 78 75 72 74 77 79 79 81 83 86 88 91 96 102 106
18 18 18 17 18 20 20 22 24 25 27 29 31 36 41 45 50 54 56 63 68 70 85 98 89 100 103 103 102 101 101 97 91 90 88 84 87 86 85 84 84 83 85 85 86 91 98 97 95 97 102 101 104 108
18 18 18 19 19 21 23 25 29 30 28 30 34 40 43 47 53 56 60 67 67 70 83 79 79 84 90 95 94 88 101 100 98 98 93 91 95 97 98 97 93 86 90 91 95 96 98 101 103 102 100 90 90 89
16 16 17 18 19 20 22 23 30 33 33 32 34 38 42 48 53 59 63 65 65 58 62 71 78 80 81 79 74 73 77 81 83 88 83 81 85 84 91 90 77 78 81 92 91 84 80 77 80 82 87 88 84 81
16 17 16 16 18 19 20 23 26 30 33 33 35 39 43 49 53 56 59 62 61 56 47 51 57 64 66 63 63 63 66 71 74 73 73 70 71 72 78 89 96 93 91 79 71 69 69 70 72 73 73 73 74 75
16 18 18 19 19 22 23 26 29 31 34 37 37 38 42 46 48 51 52 53 51 52 46 43 47 51 53 54 55 53 50 48 46 45 43 46 50 54 54 53 54 59 61 61 60 61 62 62 62 64 67 71 71 70
15 19 20 21 20 23 25 25 30 32 35 38 39 41 44 48 50 52 53 53 48 46 47 45 44 48 49 52 49 45 37 37 39 42 45 46 47 50 52 52 51 53 54 54 53 53 55 58 61 65 69 69 64 57
21 23 24 23 23 25 23 25 31 35 37 37 37 39 43 47 49 51 53 52 51 51 48 42 37 34 32 34 35 38 39 40 45 48 50 51 50 49 50 50 49 48 49 50 52 53 56 60 64 66 64 56 55 53
16 20 22 22 22 23 25 29 31 35 37 38 39 42 45 46 45 49 54 56 50 41 36 36 38 34 35 36 37 39 41 42 45 46 47 46 45 45 45 44 45 47 48 49 52 56 60 63 64 59 54 50 49 44
16 16 17 19 23 23 26 31 34 38 39 40 40 41 44 47 47 44 39 40 39 30 29 32 32 31 31 33 38 41 42 42 43 42 42 42 42 42 44 45 46 47 49 52 56 59 61 58 57 55 50 44 41 39
22 19 18 20 24 26 29 31 35 36 37 39 40 40 41 42 45 50 50 48 45 42 39 36 33 31 32 32 31 32 34 37 39 42 43 43 44 44 45 45 46 49 53 56 59 58 56 55 53 48 43 40 40 38
Wind_Direction
242 242 242 241 241 241 240 240 240 241 241 241 241 241 243 244 245 245 244 245 247 247 245 248 250 251 251 253 253 253 252 254 255 257 259 260 261 262 258 260 260 259 261 261 260 262 264 254 252 251 243 238 245 240
242 242 241 241 241 240 239 239 241 241 242 242 242 242 243 244 245 246 246 247 248 247 244 247 248 250 250 251 252 252 253 255 255 256 258 259 258 256 257 255 255 255 258 249 249 246 223 193 214 220 224 231 238 242
242 241 241 240 240 239 238 238 238 238 239 240 240 241 241 243 245 246 246 249 250 250 247 247 248 246 249 250 250 252 252 250 249 249 251 253 252 252 254 255 252 255 248 243 233 224 197 194 190 195 219 231 235 238
240 239 238 237 237 236 236 236 235 236 236 237 238 240 242 243 245 246 248 250 252 251 248 247 247 250 249 251 251 248 247 250 251 249 247 247 250 252 247 240 243 242 230 217 196 190 193 191 189 205 216 229 228 236
234 234 234 232 232 233 233 233 233 234 235 237 239 241 243 245 246 248 249 251 251 250 248 245 246 247 247 245 245 247 248 246 243 243 243 243 240 239 238 226 220 226 204 186 177 188 184 189 204 208 207 220 230 241
225 226 226 227 227 229 230 231 234 236 237 238 240 241 242 244 245 246 246 247 247 245 242 240 241 242 241 242 241 240 239 238 237 236 235 234 228 224 214 194 185 176 162 163 177 189 197 218 216 214 218 234 234 240
218 221 222 223 225 228 230 232 232 234 236 237 238 239 240 241 242 240 239 241 240 238 233 232 231 233 233 230 229 227 228 228 224 222 213 205 206 206 199 178 175 174 166 167 179 195 210 226 224 224 229 234 241 242
215 218 220 223 225 227 229 232 234 235 236 237 238 239 238 236 234 232 232 233 232 229 226 224 224 222 219 216 214 212 210 211 207 204 201 201 203 202 193 174 183 178 178 179 196 215 219 217 222 225 232 236 237 243
214 216 219 221 224 227 230 232 233 234 235 236 237 236 234 231 230 230 229 228 226 224 223 223 220 212 208 203 198 193 191 183 188 190 190 196 200 187 178 181 185 187 190 198 201 210 215 220 223 230 234 230 238 246
211 214 216 219 221 223 226 229 232 234 235 235 235 234 231 228 227 224 220 217 212 210 206 206 199 194 191 187 180 176 175 184 185 185 178 180 184 177 180 188 189 193 194 203 205 213 221 224 229 229 227 234 245 246
208 210 213 216 219 222 225 228 230 231 231 229 227 226 226 222 219 215 209 204 198 194 192 189 183 185 185 181 175 178 179 185 188 187 186 184 185 182 185 187 190 194 202 204 206 210 218 218 223 223 232 238 246 245
205 207 209 211 213 215 218 221 224 226 228 227 224 223 220 217 213 206 199 194 190 188 185 181 183 184 181 175 177 182 187 189 192 191 192 188 186 189 192 195 193 197 200 208 206 211 217 220 220 232 245 247 252 258
195 196 196 199 202 206 211 217 221 222 220 216 212 210 208 201 197 192 190 187 182 185 185 185 185 184 180 176 184 185 190 192 195 199 195 196 197 193 192 197 200 206 210 208 205 212 225 225 231 252 250 254 251 254
180 181 186 191 196 201 206 210 213 212 211 207 204 200 190 183 187 185 188 185 183 182 183 186 187 189 183 183 189 189 192 195 198 202 205 204 198 203 203 203 201 208 211 209 206 216 223 228 226 233 241 250 248 256
171 175 181 185 188 190 192 194 200 202 201 198 192 186 183 182 180 183 187 185 187 182 183 186 185 185 187 188 190 189 196 198 204 206 202 207 207 207 207 206 211 214 219 214 218 221 225 229 235 241 239 244 248 260
168 172 176 181 185 185 183 185 189 193 196 193 189 183 177 177 175 180 183 186 187 183 183 186 184 189 190 190 192 191 196 199 204 205 208 210 212 212 217 217 216 215 218 221 223 226 223 229 236 240 242 249 254 260
168 171 179 184 188 190 190 188 187 192 199 195 190 180 179 176 176 179 183 185 186 185 186 187 188 189 192 193 195 193 197 203 205 206 211 213 212 217 221 224 214 216 219 221 220 224 226 232 240 249 251 252 255 260
176 187 192 196 198 200 201 205 205 206 208 198 194 184 182 180 180 182 184 191 191 190 188 189 190 192 197 196 198 196 199 203 207 213 218 219 219 220 221 221 219 219 224 231 232 234 231 239 246 252 253 256 258 261
200 203 206 210 211 214 220 224 218 215 212 202 196 187 183 184 184 188 188 193 195 193 193 191 191 194 198 199 200 199 201 203 205 209 214 217 224 227 225 224 224 229 231 232 234 238 242 246 251 251 254 260 265 270
213 212 212 220 225 226 228 229 220 213 208 202 197 190 183 188 189 189 191 194 195 195 197 194 193 199 198 196 198 200 202 201 195 206 210 216 219 220 226 228 230 231 237 237 242 246 249 253 257 258 260 264 270 272
228 231 228 226 227 229 228 224 216 209 204 198 195 188 183 187 189 189 193 194 195 196 199 199 197 200 202 200 201 204 205 203 207 213 211 213 217 220 222 228 237 237 238 242 249 255 261 259 259 261 260 265 271 273
235 228 223 220 215 214 214 207 205 203 199 196 193 188 181 183 186 190 193 192 194 196 199 202 201 202 204 202 201 203 202 206 210 213 216 218 221 225 231 234 238 238 240 245 247 249 253 256 260 266 266 271 276 278
217 215 211 205 200 196 193 192 191 189 185 188 184 187 184 184 189 192 191 193 194 198 200 204 204 205 206 209 206 205 204 206 210 214 218 222 225 227 230 232 235 239 241 244 250 256 257 261 263 267 271 272 275 278
201 199 197 197 194 192 187 191 181 177 180 179 176 180 181 184 189 190 191 192 197 199 202 205 207 208 210 212 212 212 212 213 218 223 225 226 227 230 232 236 239 245 248 249 254 258 258 262 271 276 276 278 279 278
202 200 199 191 191 191 189 186 175 169 174 183 180 179 180 182 185 189 190 194 200 199 204 206 208 209 212 215 218 220 220 222 225 227 233 238 239 240 242 243 248 254 255 258 260 264 266 270 271 274 278 279 282 283
199 197 197 192 184 187 189 188 184 173 173 183 181 180 181 182 187 189 193 197 204 206 198 204 208 212 215 220 225 226 228 228 229 229 235 238 238 241 242 246 251 255 255 263 268 269 269 268 269 270 272 276 279 283
195 191 188 190 185 181 185 183 181 181 174 176 177 182 182 181 188 189 195 199 204 212 208 205 209 214 217 219 224 228 229 229 233 238 243 246 250 252 251 249 247 249 256 258 257 260 262 264 267 270 274 278 282 285
188 184 181 180 183 181 181 181 180 177 175 175 175 177 181 183 184 186 192 199 203 207 210 206 205 204 209 213 218 227 232 235 237 240 237 233 233 235 240 242 243 246 251 255 259 262 265 268 271 276 280 282 286 292
171 187 185 177 178 183 183 184 178 177 181 177 175 175 179 181 183 183 190 193 196 195 200 207 201 202 211 218 221 223 225 231 234 236 237 234 235 239 244 248 250 252 256 260 263 265 268 273 277 279 283 288 294 297
180 184 182 179 180 178 177 183 176 181 183 179 172 172 176 183 185 188 192 197 202 205 206 206 209 210 206 208 215 218 219 224 227 231 233 237 240 245 247 249 253 257 260 263 267 271 274 277 279 282 288 296 298 296
191 183 178 177 174 174 176 177 174 174 173 177 177 176 178 178 177 183 191 199 205 204 199 202 205 207 213 211 213 217 223 227 228 232 236 241 245 248 252 256 259 263 266 269 273 274 276 281 285 290 297 299 295 292
165 175 182 181 171 174 178 173 172 174 171 173 177 180 179 181 184 180 185 198 211 199 203 209 205 203 213 220 224 227 229 231 233 236 240 245 250 253 257 261 264 267 270 271 273 276 279 283 289 294 296 293 292 293
150 160 166 172 172 171 171 172 173 173 172 174 174 176 178 181 179 179 185 191 197 204 208 210 216 222 220 217 227 234 238 239 241 244 247 252 256 261 263 265 267 268 271 273 275 279 284 288 291 293 291 291 292 292
Height
10055 10065 10074 10082 10092 10103 10113 10124 10133 10141 10149 10158 10166 10174 10180 10186 10193 10207 10217 10224 10234 10252 10282 10282 10292 10307 10309 10314 10326 10343 10330 10348 10355 10358 10363 10375 10384 10394 10393 10417 10422 10426 10430 10443 10453 10457 10485 10494 10497 10500 10523 10517 10526 10532
10036 10043 10052 10061 10073 10083 10095 10104 10114 10121 10129 10137 10145 10153 10158 10162 10169 10182 10197 10197 10206 10227 10273 10258 10273 10284 10281 10272 10295 10303 10321 10327 10336 10333 10335 10346 10358 10363 10378 10393 10396 10403 10421 10425 10434 10451 10456 10464 10476 10489 10501 10511 10517 10520
10015 10023 10033 10043 10054 10065 10076 10086 10094 10100 10108 10117 10123 10127 10134 10142 10150 10164 10171 10178 10187 10212 10239 10247 10252 10232 10259 10264 10267 10292 10297 10298 10296 10310 10315 10322 10331 10342 10359 10377 10375 10389 10399 10412 10419 10437 10442 10453 10470 10482 10491 10498 10501 10507
9995 10006 10014 10026 10038 10047 10058 10065 10073 10079 10089 10094 10098 10108 10117 10124 10133 10143 10156 10158 10174 10190 10215 10223 10215 10227 10228 10248 10253 10264 10267 10271 10286 10287 10297 10304 10321 10330 10340 10353 10363 10374 10383 10399 10413 10423 10434 10450 10461 10468 10477 10486 10491 10494
9979 9988 9999 10010 10021 10030 10038 10046 10053 10061 10067 10074 10083 10092 10100 10109 10118 10129 10142 10144 10152 10168 10188 10195 10198 10202 10219 10224 10233 10244 10248 10258 10264 10266 10284 10299 10308 10316 10327 10335 10355 10370 10381 10395 10411 10414 10429 10438 10448 10454 10465 10470 10477 10481
9965 9974 9983 9995 10004 10011 10020 10028 10036 10045 10053 10060 10068 10076 10084 10093 10104 10118 10127 10124 10132 10148 10166 10174 10177 10190 10196 10210 10223 10228 10232 10240 10247 10257 10277 10288 10299 10300 10314 10333 10347 10362 10374 10388 10399 10408 10419 10430 10440 10446 10454 10462 10464 10470
9949 9959 9969 9980 9988 9996 10006 10015 10021 10028 10036 10045 10052 10060 10070 10081 10093 10101 10102 10104 10116 10130 10145 10150 10162 10171 10184 10195 10207 10213 10220 10229 10240 10252 10266 10277 10286 10295 10314 10328 10340 10354 10366 10377 10388 10399 10409 10416 10430 10434 10442 10449 10454 10459
9936 9947 9957 9966 9975 9985 9992 10000 10008 10016 10023 10031 10039 10048 10059 10070 10075 10076 10080 10090 10104 10118 10128 10137 10146 10161 10174 10184 10195 10202 10211 10221 10232 10245 10256 10269 10277 10292 10311 10325 10334 10346 10355 10367 10380 10390 10398 10406 10417 10427 10433 10439 10443 10447
9926 9937 9947 9956 9965 9974 9981 9989 9996 10003 10011 10019 10027 10035 10043 10047 10049 10056 10069 10081 10093 10106 10117 10130 10142 10153 10163 10173 10184 10197 10211 10219 10228 10238 10250 10258 10270 10285 10306 10318 10328 10339 10351 10358 10366 10379 10390 10402 10411 10417 10422 10428 10431 10436
9919 9928 9938 9947 9956 9964 9971 9978 9985 9993 10001 10007 10014 10019 10022 10028 10040 10051 10059 10072 10082 10095 10108 10120 10136 10145 10154 10166 10179 10188 10203 10214 10223 10234 10243 10256 10272 10288 10300 10308 10319 10333 10345 10354 10368 10378 10388 10396 10403 10407 10412 10415 10418 10422
9913 9922 9931 9940 9948 9955 9962 9968 9975 9982 9989 9995 10002 10006 10014 10025 10034 10043 10055 10066 10078 10088 10100 10112 10125 10135 10149 10163 10169 10177 10187 10205 10217 10228 10238 10252 10268 10283 10294 10308 10321 10332 10342 10351 10361 10371 10378 10383 10390 10397 10402 10406 10407 10409
9908 9917 9926 9934 9941 9948 9954 9961 9967 9974 9982 9990 9995 10002 10010 10019 10031 10041 10053 10064 10073 10082 10095 10106 10117 10130 10144 10154 10166 10179 10189 10197 10212 10227 10236 10251 10266 10278 10291 10300 10314 10323 10332 10343 10353 10362 10368 10376 10383 10387 10391 10393 10395 10396
9904 9912 9921 9929 9936 9943 9950 9956 9962 9970 9976 9981 9987 9994 10003 10016 10030 10041 10049 10061 10072 10081 10088 10098 10113 10125 10138 10150 10161 10171 10183 10196 10210 10219 10234 10248 10261 10272 10285 10297 10309 10316 10326 10335 10344 10354 10361 10367 10374 10377 10380 10382 10385 10385
9902 9911 9919 9926 9933 9940 9946 9953 9959 9965 9970 9975 9982 9993 10005 10015 10023 10031 10039 10050 10058 10071 10085 10099 10113 10127 10136 10140 10152 10170 10185 10197 10209 10220 10230 10242 10257 10267 10278 10289 10300 10309 10317 10328 10336 10343 10351 10357 10363 10366 10369 10371 10372 10374
9904 9912 9919 9926 9932 9938 9945 9951 9956 9961 9966 9973 9980 9988 9997 10005 10016 10028 10037 10047 10056 10066 10079 10094 10110 10121 10128 10140 10156 10174 10183 10197 10206 10214 10226 10238 10251 10262 10273 10285 10295 10303 10310 10319 10327 10333 10340 10346 10350 10355 10357 10359 10359 10356
9907 9913 9920 9926 9932 9938 9944 9949 9953 9957 9961 9966 9974 9983 9994 10002 10010 10020 10030 10040 10053 10065 10079 10092 10107 10114 10130 10145 10158 10173 10184 10193 10203 10215 10223 10233 10243 10253 10264 10276 10288 10295 10303 10310 10317 10322 10329 10331 10334 10336 10338 10341 10341 10341
9908 9915 9920 9926 9931 9936 9941 9946 9950 9953 9955 9961 9969 9980 9991 9999 10004 10011 10022 10035 10047 10059 10071 10088 10102 10119 10129 10144 10157 10169 10180 10190 10200 10212 10218 10229 10240 10252 10260 10267 10279 10286 10294 10300 10306 10311 10316 10319 10322 10324 10326 10326 10327 10325
9910 9914 9919 9924 9929 9934 9939 9943 9946 9948 9949 9957 9965 9978 9988 9998 10006 10014 10024 10033 10045 10058 10070 10081 10098 10117 10125 10142 10154 10165 10172 10184 10196 10207 10215 10224 10235 10243 10252 10257 10265 10273 10281 10285 10291 10296 10301 10304 10307 10309 10309 10309 10307 10304
9908 9913 9917 9921 9926 9931 9933 9936 9939 9942 9945 9954 9963 9973 9984 9993 10002 10012 10020 10029 10041 10054 10063 10077 10097 10107 10119 10132 10139 10153 10164 10175 10191 10201 10205 10216 10224 10235 10242 10249 10258 10263 10267 10274 10281 10287 10290 10292 10293 10291 10290 10290 10291 10291
9906 9910 9914 9917 9920 9922 9924 9927 9931 9935 9942 9950 9959 9969 9980 9989 9998 10006 10015 10025 10038 10052 10063 10077 10090 10102 10109 10121 10135 10149 10159 10170 10183 10188 10199 10209 10217 10226 10233 10239 10245 10252 10256 10261 10268 10272 10274 10275 10276 10275 10274 10275 10275 10272
9901 9906 9907 9908 9911 9915 9919 9923 9927 9933 9940 9946 9954 9963 9973 9984 9994 10004 10014 10024 10036 10050 10062 10076 10086 10095 10107 10118 10131 10141 10156 10165 10171 10181 10192 10201 10210 10217 10222 10229 10235 10239 10245 10252 10254 10256 10258 10261 10262 10263 10261 10258 10257 10253
9896 9898 9901 9903 9907 9911 9916 9920 9925 9931 9937 9944 9953 9962 9971 9980 9989 10000 10011 10023 10035 10048 10063 10074 10085 10092 10101 10115 10130 10141 10153 10161 10170 10177 10184 10190 10197 10204 10209 10216 10221 10226 10232 10235 10238 10241 10243 10245 10245 10246 10244 10240 10235 10229
9892 9895 9898 9901 9906 9910 9915 9919 9922 9928 9935 9942 9953 9963 9971 9978 9985 9995 10008 10021 10031 10043 10055 10067 10079 10089 10098 10108 10123 10137 10149 10157 10164 10169 10175 10182 10188 10192 10197 10203 10210 10215 10217 10221 10225 10228 10228 10228 10226 10223 10221 10217 10212 10208
9891 9893 9897 9901 9905 9910 9914 9918 9921 9927 9933 9940 9951 9960 9968 9977 9984 9994 10006 10018 10028 10041 10051 10063 10075 10086 10096 10107 10120 10134 10142 10149 10154 10161 10168 10175 10180 10184 10188 10193 10198 10202 10205 10209 10212 10212 10210 10207 10205 10202 10199 10195 10189 10183
9890 9893 9897 9900 9905 9910 9914 9918 9921 9925 9932 9939 9948 9957 9965 9974 9983 9992 10004 10014 10022 10035 10045 10057 10071 10080 10091 10103 10115 10125 10133 10139 10146 10155 10160 10164 10170 10174 10177 10183 10188 10192 10193 10194 10196 10192 10191 10189 10186 10185 10179 10172 10168 10162
9890 9894 9897 9901 9905 9909 9914 9920 9924 9927 9932 9939 9948 9958 9965 9975 9983 9992 10000 10011 10020 10028 10041 10052 10065 10077 10087 10094 10103 10114 10122 10130 10135 10142 10148 10152 10156 10161 10167 10172 10179 10180 10179 10180 10176 10174 10171 10169 10168 10167 10164 10158 10152 10146
9891 9895 9898 9902 9906 9911 9916 9921 9926 9931 9935 9942 9952 9960 9967 9975 9983 9993 10002 10012 10020 10029 10039 10053 10063 10072 10081 10089 10096 10104 10112 10119 10126 10132 10139 10145 10150 10154 10154 10155 10160 10163 10165 10166 10164 10161 10157 10155 10152 10149 10144 10138 10134 10131
9891 9894 9899 9902 9907 9911 9916 9920 9925 9931 9937 9942 9950 9960 9967 9975 9985 9994 10003 10012 10019 10028 10039 10050 10057 10065 10073 10080 10087 10093 10101 10108 10115 10120 10125 10129 10131 10132 10134 10137 10143 10148 10149 10148 10145 10142 10140 10137 10133 10130 10126 10121 10117 10115
9892 9895 9898 9901 9907 9913 9916 9922 9927 9932 9937 9943 9951 9961 9969 9976 9983 9993 10001 10009 10017 10028 10036 10043 10052 10062 10069 10075 10082 10088 10094 10099 10102 10107 10110 10114 10117 10121 10124 10128 10131 10131 10130 10128 10127 10125 10123 10121 10118 10113 10109 10106 10104 10100
9889 9892 9896 9900 9907 9912 9917 9924 9929 9932 9938 9945 9952 9960 9968 9976 9984 9993 10000 10008 10015 10022 10031 10040 10049 10057 10065 10072 10078 10083 10088 10091 10093 10096 10100 10103 10107 10110 10112 10114 10114 10114 10114 10113 10112 10110 10108 10104 10101 10097 10095 10093 10089 10083
9893 9896 9899 9903 9909 9914 9919 9925 9930 9935 9940 9945 9952 9960 9967 9976 9984 9991 9998 10004 10013 10023 10031 10038 10046 10052 10059 10065 10070 10074 10077 10080 10083 10086 10090 10094 10096 10098 10099 10100 10100 10101 10100 10099 10097 10095 10092 10088 10085 10082 10080 10077 10073 10069
9895 9900 9903 9907 9911 9916 9922 9927 9932 9937 9943 9949 9954 9961 9968 9976 9984 9996 10005 10012 10016 10022 10030 10037 10043 10050 10056 10060 10064 10066 10069 10072 10075 10078 10081 10082 10084 10085 10086 10087 10088 10087 10086 10085 10082 10078 10075 10073 10071 10069 10067 10063 10059 10057
9895 9901 9906 9910 9913 9918 9923 9929 9933 9937 9943 9949 9956 9963 9971 9979 9987 9995 10001 10008 10015 10021 10027 10032 10037 10043 10047 10051 10055 10059 10061 10063 10065 10067 10069 10071 10072 10074 10075 10075 10074 10072 10069 10066 10063 10062 10061 10059 10057 10054 10052 10049 10047 10044